Location: Kalberh�ni
(46.4610°N, 7.2453°E)
Time: 21:24:16
(UTC+00:00)

USA 229 - Pass Details

Date: 24 October 2021
Orbit: 946 x 1266 km, 63.4° (Epoch: 25 November)

Event Time Altitude Azimuth Distance (km) Brightness Sun altitude
Rises 19:15:03 0° 237° (WSW) 3,650 7.1 -29.2°
Reaches altitude 10° 19:17:38 10° 243° (WSW) 2,733 6.4 -29.6°
Maximum altitude 19:23:51 51° 319° (NW) 1,272 4.3 -30.7°
Enters shadow 19:26:59 30° 18° (NNE) 1,790 4.8 -31.2°
